Weather History for Oskaloosa, IA

Change the Weather History Date:

Wednesday, October 19, 2011

  Actual Average (KOTM) Record (KOTM)
Temperature  
Mean Temperature 46 °F 51 °F  
Max Temperature 51 °F 62 °F 85 °F (1924)
Min Temperature 42 °F 40 °F 17 °F (1972)
Degree Days  
Heating Degree Days 18 14  
Month to date heating degree days 209  
Since 1 July heating degree days 330  
Cooling Degree Days 0 0  
Month to date cooling degree days 9  
Year to date cooling degree days 936  
Moisture  
Dew Point 33 °F    
Average Humidity 61    
Maximum Humidity 76    
Minimum Humidity 47    
Precipitation  
Precipitation 0.00 in 0.09 in 0.80 in (1983)
Month to date precipitation 1.75  
Year to date precipitation 32.24  
Sea Level Pressure  
Sea Level Pressure 29.93 in    
Wind  
Wind Speed 11 mph (NNW)    
Max Wind Speed 20 mph    
Max Gust Speed 29 mph    
Visibility 10 miles    
Events Rain    
T = Trace of Precipitation, MM = Missing Value Source: NWS Daily Summary

Daily Weather History Graph

Daily Weather History Graph

Search for Another Location

Airport:

Trip Planner

Search our weather history database for the weather conditions in past years. The results will help you decide how hot, cold, wet, or windy it might be!

Date:

Astronomy

Oct. 19, 2011 Rise Set
Actual Time 7:25 AM CDT 6:23 PM CDT
Civil Twilight 6:57 AM CDT 6:51 PM CDT
Nautical Twilight 6:25 AM CDT 7:23 PM CDT
Astronomical Twilight 5:53 AM CDT 7:55 PM CDT
Moon No Moon Rise 1:58 PM CDT (10/19)
Length of Visible Light 11h 53m
Length of Day
10h 57m
Waning Gibbous, 54% of the Moon is Illuminated
Oct 19
Waning Gibbous
Oct 19
Last Quarter
Oct 26
New
Nov 2
First Quarter
Nov 10
Full

Hourly Weather History & Observations

Time (CDT) Temp. Windchill Dew Point Humidity Pressure Visibility Wind Dir Wind Speed Gust Speed Precip Events Conditions
12:15 AM 42.8 °F 37.0 °F 32.0 °F 66% 29.94 in 10.0 mi NNW 10.4 mph 16.1 mph N/A   Overcast
12:35 AM 42.8 °F 37.0 °F 32.0 °F 66% 29.93 in 10.0 mi NNW 10.4 mph 16.1 mph N/A   Overcast
12:55 AM 42.8 °F 37.5 °F 32.0 °F 66% 29.93 in 10.0 mi NNW 9.2 mph - N/A   Overcast
1:15 AM 42.8 °F 37.5 °F 32.0 °F 66% 29.93 in 10.0 mi NNW 9.2 mph - N/A   Overcast
1:35 AM 42.8 °F 37.5 °F 32.0 °F 66% 29.92 in 10.0 mi NNW 9.2 mph 16.1 mph N/A   Overcast
2:15 AM 42.8 °F 36.6 °F 32.0 °F 66% 29.92 in 10.0 mi NNW 11.5 mph - N/A   Overcast
2:35 AM 42.8 °F 38.0 °F 32.0 °F 66% 29.92 in 10.0 mi NNW 8.1 mph 16.1 mph N/A   Overcast
2:55 AM 42.8 °F 38.0 °F 32.0 °F 66% 29.92 in 10.0 mi NNW 8.1 mph - N/A   Overcast
3:15 AM 42.8 °F 37.5 °F 32.0 °F 66% 29.91 in 10.0 mi NNW 9.2 mph - N/A   Overcast
3:35 AM 42.8 °F 37.5 °F 32.0 °F 66% 29.91 in 10.0 mi NNW 9.2 mph 19.6 mph N/A   Overcast
3:55 AM 42.8 °F 37.0 °F 32.0 °F 66% 29.91 in 10.0 mi NNW 10.4 mph 17.3 mph N/A   Overcast
4:15 AM 42.8 °F 37.5 °F 32.0 °F 66% 29.91 in 10.0 mi NNW 9.2 mph - N/A   Overcast
4:35 AM 42.8 °F 37.0 °F 32.0 °F 66% 29.91 in 10.0 mi NNW 10.4 mph 16.1 mph N/A   Overcast
5:15 AM 42.8 °F 38.0 °F 33.8 °F 70% 29.91 in 10.0 mi NNW 8.1 mph - N/A   Overcast
5:35 AM 42.8 °F 37.0 °F 33.8 °F 70% 29.92 in 10.0 mi NNW 10.4 mph - N/A   Overcast
6:15 AM 42.8 °F 37.0 °F 33.8 °F 70% 29.92 in 10.0 mi NNW 10.4 mph - N/A   Overcast
6:35 AM 42.8 °F 37.5 °F 35.6 °F 76% 29.92 in 10.0 mi NNW 9.2 mph 16.1 mph N/A   Overcast
6:55 AM 42.8 °F 37.5 °F 35.6 °F 76% 29.92 in 10.0 mi NNW 9.2 mph 16.1 mph N/A Rain Light Rain
7:15 AM 42.8 °F 37.0 °F 35.6 °F 76% 29.92 in 10.0 mi North 10.4 mph - N/A   Overcast
7:35 AM 42.8 °F 38.0 °F 35.6 °F 76% 29.92 in 10.0 mi North 8.1 mph - N/A Rain Light Rain
7:55 AM 42.8 °F 36.6 °F 35.6 °F 76% 29.93 in 10.0 mi NNW 11.5 mph 17.3 mph N/A   Overcast
8:15 AM 42.8 °F 38.6 °F 35.6 °F 76% 29.93 in 10.0 mi NNW 6.9 mph - N/A   Overcast
8:35 AM 42.8 °F 37.5 °F 35.6 °F 76% 29.94 in 10.0 mi NNW 9.2 mph - N/A Rain Light Rain
8:55 AM 42.8 °F 37.0 °F 35.6 °F 76% 29.95 in 10.0 mi NNW 10.4 mph 16.1 mph N/A   Light Drizzle
9:15 AM 42.8 °F 37.5 °F 35.6 °F 76% 29.95 in 10.0 mi NNW 9.2 mph 16.1 mph N/A   Light Drizzle
9:35 AM 42.8 °F 37.5 °F 35.6 °F 76% 29.95 in 10.0 mi North 9.2 mph - N/A Rain Light Rain
9:55 AM 42.8 °F 36.6 °F 35.6 °F 76% 29.96 in 10.0 mi North 11.5 mph - N/A   Light Drizzle
10:15 AM 44.6 °F 38.1 °F 35.6 °F 71% 29.95 in 10.0 mi North 13.8 mph 17.3 mph N/A   Overcast
10:35 AM 44.6 °F 39.2 °F 35.6 °F 71% 29.95 in 10.0 mi North 10.4 mph 18.4 mph N/A   Overcast
10:55 AM 46.4 °F 40.1 °F 35.6 °F 66% 29.94 in 10.0 mi NNW 15.0 mph 18.4 mph N/A   Overcast
11:15 AM 50.0 °F - 33.8 °F 54% 29.94 in 10.0 mi North 12.7 mph 21.9 mph N/A   Overcast
11:35 AM 50.0 °F - 32.0 °F 50% 29.94 in 10.0 mi North 16.1 mph 25.3 mph N/A   Mostly Cloudy
11:55 AM 51.8 °F - 32.0 °F 47% 29.94 in 10.0 mi North 17.3 mph 25.3 mph N/A   Mostly Cloudy
12:15 PM 50.0 °F - 32.0 °F 50% 29.94 in 10.0 mi North 12.7 mph 24.2 mph N/A   Overcast
12:55 PM 50.0 °F - 32.0 °F 50% 29.93 in 10.0 mi North 16.1 mph 26.5 mph N/A   Overcast
1:15 PM 50.0 °F - 32.0 °F 50% 29.92 in 10.0 mi North 19.6 mph 24.2 mph N/A   Overcast
1:35 PM 50.0 °F - 32.0 °F 50% 29.92 in 10.0 mi North 15.0 mph 25.3 mph N/A   Overcast
1:55 PM 50.0 °F - 32.0 °F 50% 29.92 in 10.0 mi North 16.1 mph 28.8 mph N/A   Overcast
2:15 PM 48.2 °F - 32.0 °F 54% 29.92 in 10.0 mi NNW 15.0 mph 21.9 mph N/A   Overcast
2:55 PM 48.2 °F - 32.0 °F 54% 29.92 in 10.0 mi NNW 17.3 mph 21.9 mph N/A   Overcast
3:15 PM 50.0 °F - 32.0 °F 50% 29.91 in 10.0 mi NNW 12.7 mph 18.4 mph N/A   Overcast
3:35 PM 48.2 °F - 32.0 °F 54% 29.91 in 10.0 mi NNW 16.1 mph 21.9 mph N/A   Overcast
3:55 PM 50.0 °F - 32.0 °F 50% 29.92 in 10.0 mi NNW 12.7 mph 21.9 mph N/A   Overcast
4:15 PM 50.0 °F - 32.0 °F 50% 29.92 in 10.0 mi NNW 13.8 mph 21.9 mph N/A   Overcast
4:35 PM 50.0 °F - 32.0 °F 50% 29.92 in 10.0 mi NNW 10.4 mph 20.7 mph N/A   Overcast
4:55 PM 50.0 °F - 32.0 °F 50% 29.92 in 10.0 mi NNW 12.7 mph 19.6 mph N/A   Overcast
5:15 PM 50.0 °F - 32.0 °F 50% 29.92 in 10.0 mi NNW 10.4 mph 16.1 mph N/A   Overcast
5:35 PM 50.0 °F - 32.0 °F 50% 29.92 in 10.0 mi NNW 16.1 mph 20.7 mph N/A   Overcast
5:55 PM 50.0 °F - 32.0 °F 50% 29.92 in 10.0 mi North 15.0 mph 24.2 mph N/A   Overcast
6:15 PM 50.0 °F - 32.0 °F 50% 29.92 in 10.0 mi NNW 15.0 mph 20.7 mph N/A   Overcast
6:35 PM 50.0 °F - 32.0 °F 50% 29.92 in 10.0 mi North 16.1 mph 23.0 mph N/A   Overcast
6:55 PM 50.0 °F - 32.0 °F 50% 29.93 in 10.0 mi NNW 13.8 mph 21.9 mph N/A   Overcast
7:15 PM 48.2 °F - 32.0 °F 54% 29.93 in 10.0 mi NNW 13.8 mph 18.4 mph N/A   Overcast
7:35 PM 48.2 °F - 32.0 °F 54% 29.93 in 10.0 mi NNW 9.2 mph 17.3 mph N/A   Overcast
7:55 PM 46.4 °F 39.2 °F 32.0 °F 57% 29.93 in 10.0 mi NNW 18.4 mph 24.2 mph N/A   Overcast
8:35 PM 46.4 °F 39.8 °F 32.0 °F 57% 29.93 in 10.0 mi NNW 16.1 mph 21.9 mph N/A   Overcast
9:15 PM 46.4 °F 40.7 °F 32.0 °F 57% 29.93 in 10.0 mi NNW 12.7 mph 18.4 mph N/A   Overcast
9:35 PM 44.6 °F 37.8 °F 32.0 °F 61% 29.93 in 10.0 mi NNW 15.0 mph 24.2 mph N/A   Overcast
9:55 PM 44.6 °F 37.4 °F 32.0 °F 61% 29.93 in 10.0 mi NNW 16.1 mph 21.9 mph N/A   Overcast
10:15 PM 44.6 °F 38.4 °F 32.0 °F 61% 29.93 in 10.0 mi NW 12.7 mph 18.4 mph N/A   Overcast
10:35 PM 44.6 °F 39.2 °F 32.0 °F 61% 29.92 in 10.0 mi NW 10.4 mph 16.1 mph N/A   Overcast
10:55 PM 42.8 °F 35.8 °F 32.0 °F 66% 29.92 in 10.0 mi NW 13.8 mph 18.4 mph N/A   Overcast
11:15 PM 42.8 °F 36.2 °F 32.0 °F 66% 29.92 in 10.0 mi NW 12.7 mph 18.4 mph N/A   Mostly Cloudy
11:35 PM 42.8 °F 36.6 °F 32.0 °F 66% 29.92 in 10.0 mi NW 11.5 mph 17.3 mph N/A   Mostly Cloudy
11:55 PM 42.8 °F 35.4 °F 32.0 °F 66% 29.91 in 10.0 mi NW 15.0 mph 21.9 mph N/A   Overcast